Regional Weather Roundup
Issued by NWS Cleveland, OH

Home | Current Version | Previous Version | Graphics & Text | Print | Product List | Glossary On
Versions: 1 2 3 4 5 6 7 8 9 10 11 12 13 14 15 16 17 18 19 20 21 22 23 24 25 26 27 28 29 30 31 32 33 34 35 36 37 38 39 40 41 42 43 44 45 46 47 48 49 50
044
ASUS41 KCLE 201700
RWRCLE
OHIO REGIONAL WEATHER ROUNDUP
NATIONAL WEATHER SERVICE WILMINGTON, OH
1200 PM EST FRI JAN 20 2017

NOTE: "FAIR" INDICATES FEW OR NO CLOUDS BELOW 12,000 FEET WITH NO
SIGNIFICANT WEATHER AND/OR OBSTRUCTIONS TO VISIBILITY.

OHZ001>008-015>018-024>027-034-035-043-044-201800-
   NORTHWEST OHIO

CITY           SKY/WX    TMP DP  RH WIND       PRES   REMARKS
DEFIANCE       CLOUDY    40  39  97 SW5       29.65S FOG
FINDLAY        CLOUDY    51  47  86 SW13      29.64S
TOLEDO EXPRESS FOG       39  39 100 CALM      29.64S VSB 1/2
TOLEDO EXEC    FOG       40  40 100 CALM      29.65F VSB 1
LIMA           CLOUDY    50  50 100 SW14      29.65S FOG
$$

OHZ009>014-019>023-028>033-038-089-201800-
   NORTHEAST OHIO

CITY           SKY/WX    TMP DP  RH WIND       PRES   REMARKS
CLE-HOPKINS    CLOUDY    50  45  83 S10       29.68S
CLE-LAKEFRONT  CLOUDY    48  44  86 S13       29.65S
CUY CO. ARPT   CLOUDY    48  45  87 S16       29.67S
LORAIN-ELYRIA  CLOUDY    48  44  86 SW12      29.65F
ASHTABULA      CLOUDY    43  42  97 S10       29.68F
AKRON-CANTON   CLOUDY    48  45  89 S12       29.68S FOG
WOOSTER        NOT AVBL
MANSFIELD      CLOUDY    50  50 100 SW17      29.66S
YOUNGSTOWN     LGT RAIN  45  42  89 S8        29.68F FOG
$$

OHZ042-051>053-060>062-070>072-077>081-201800-
  SOUTHWEST OHIO

CITY           SKY/WX    TMP DP  RH WIND       PRES   REMARKS
CINC-COVINGTON CLOUDY    57  53  86 SW9G16    29.72F
CINC-LUNKEN    CLOUDY    59  54  83 SW13      29.73F
HAMILTON       CLOUDY    59  54  83 SW7G17    29.73S
DAYTON         NOT AVBL
WRIGHT-PAT AFB NOT AVBL
DAYTON GENERAL CLOUDY    56  52  86 SW16G23   29.70F
WILMINGTON       N/A     56  53  90 SW16      29.71F
$$

OHZ036-037-039>041-045>050-054>059-063>069-073>076-082>088-201800-
  CENTRAL AND SOUTHEAST OHIO

CITY           SKY/WX    TMP DP  RH WIND       PRES   REMARKS
COLUMBUS       CLOUDY    58  52  80 SW14G24   29.70F
OSU AIRPORT    CLOUDY    57  53  86 SW16G28   29.69S
BOLTON FIELD   NOT AVBL
RICKENBACK AFB NOT AVBL
NEWARK         CLOUDY    57  52  83 SW13      29.70F
MARION         CLOUDY    53  50  89 SW12      29.67S
LANCASTER      PTSUNNY   59  53  80 SW16G22   29.72F
ZANESVILLE     CLOUDY    57  52  83 SW13      29.71F
NEW PHILLY     CLOUDY    51  50  96 SW8       29.71F
$$




USA.gov is the U.S. government's official web portal to all federal, state and local government web resources and services.